This is the latest recevied weather packets stored in our database for station/object N8SDR. If no packets are shown the sender has not sent any weather packets the latest 10 day(s).
| Time | Temp. | Humidity | Pressure | Rain* | Wind** | Luminosity | Snow |
|---|---|---|---|---|---|---|---|
| 1777559133 | 8.89° C | 80% | 1013.7 hPa | 0 mm | - | 680 W/m² | - |
| 1777558833 | 8.33° C | 81% | 1013.7 hPa | 0 mm | - | 231 W/m² | - |
| 1777558528 | 8.33° C | 81% | 1013.9 hPa | 0 mm | - | 144 W/m² | - |
| 1777558225 | 8.33° C | 81% | 1013.6 hPa | 0 mm | - | 206 W/m² | - |
| 1777557921 | 8.33° C | 82% | 1014 hPa | 0 mm | - | 171 W/m² | - |
| 1777557618 | 8.33° C | 83% | 1013.8 hPa | 0 mm | - | 291 W/m² | - |
| 1777557314 | 8.33° C | 82% | 1013.3 hPa | 0 mm | - | 216 W/m² | - |
| 1777557011 | 8.33° C | 83% | 1013.4 hPa | 0 mm | - | 204 W/m² | - |
| 1777556706 | 7.78° C | 84% | 1013.2 hPa | 0 mm | - | 204 W/m² | - |
| 1777556403 | 7.78° C | 84% | 1013.1 hPa | 0 mm | - | 175 W/m² | - |
| 1777556098 | 7.78° C | 83% | 1013.4 hPa | 0 mm | - | 131 W/m² | - |
| 1777555797 | 8.33° C | 82% | 1013.3 hPa | 0 mm | - | 127 W/m² | - |
| 1777555494 | 8.33° C | 83% | 1013.1 hPa | 0 mm | - | 180 W/m² | - |
| 1777555190 | 7.78° C | 83% | 1013 hPa | 0 mm | - | 337 W/m² | - |
| 1777554888 | 7.22° C | 84% | 1013 hPa | 0 mm | - | 183 W/m² | - |
| 1777554585 | 7.78° C | 84% | 1012.9 hPa | 0 mm | - | 230 W/m² | - |
| 1777554281 | 7.78° C | 84% | 1012.7 hPa | 0 mm | - | 350 W/m² | - |
| 1777553978 | 7.78° C | 85% | 1012.7 hPa | 0 mm | - | 354 W/m² | - |
| 1777553675 | 7.22° C | 85% | 1012.6 hPa | 0 mm | - | 141 W/m² | - |
| 1777553372 | 7.22° C | 85% | 1012.3 hPa | 0 mm | - | 130 W/m² | - |
| 1777553068 | 7.22° C | 85% | 1012.4 hPa | 0 mm | - | 176 W/m² | - |
| 1777552763 | 7.22° C | 85% | 1012.5 hPa | 0 mm | - | 226 W/m² | - |
| 1777552459 | 7.22° C | 84% | 1012.5 hPa | 0 mm | - | 111 W/m² | - |
| 1777552156 | 7.22° C | 84% | 1012.5 hPa | 0 mm | - | 152 W/m² | - |
| 1777551853 | 7.22° C | 85% | 1012.3 hPa | 0 mm | - | 161 W/m² | - |
* Rain latest hour (hover to see other rain measurements)
** Current wind speed in m/s (hover to see current wind gust speed)